Location: LC-39B
(28.6273°N, 80.6211°W)
Time: 21:50:57
(UTC+00:00)

ISS - Visible Passes

Search period start: 27 November 2014 00:00
Search period end: 07 December 2014 00:00
Orbit: 407 x 417 km, 51.6° (Epoch: 27 November)

Date Brightness Start Highest point End Pass type
(mag) Time Alt. Az. Time Alt. Az. Time Alt. Az.
28 Nov -2.1 11:00:16 11° NNW 11:03:11 37° NE 11:06:16 10° ESE visible
29 Nov -1.1 10:12:48 19° NNE 10:13:14 20° NE 10:15:43 10° E visible
30 Nov -3.1 10:58:13 23° WNW 11:00:02 54° SW 11:03:15 10° SSE visible
01 Dec -2.4 10:10:50 48° ESE 10:10:50 48° ESE 10:13:24 10° SE visible
02 Dec -1.3 10:56:19 15° WSW 10:56:34 15° SW 10:58:33 10° SSW visible
03 Dec -0.7 10:08:59 15° S 10:08:59 15° S 10:09:42 10° SSE visible
05 Dec -1.9 00:13:33 10° SW 00:15:34 35° SW 00:15:34 35° SW visible
05 Dec -2.5 23:23:49 10° SSW 23:26:50 34° SE 23:28:03 25° E visible
